TimeMDT,TemperatureF,Dew PointF,Humidity,Sea Level PressureIn,VisibilityMPH,Wind Direction,Wind SpeedMPH,Gust SpeedMPH,PrecipitationIn,Events,Conditions,WindDirDegrees,DateUTC
12:58 AM,60.8,48.2,63,30.20,10.0,NNE,10.4,-,N/A,,Clear,30,2013-07-26 06:58:00
1:58 AM,55.4,48.2,77,30.20,6.2,NNE,10.4,-,N/A,,Clear,30,2013-07-26 07:58:00
2:55 AM,59.0,46.4,63,30.26,10.0,NNW,6.9,-,N/A,,Scattered Clouds,340,2013-07-26 08:55:00
2:58 AM,-9999,-9999,N/A,-9999,-9999.0,NE,5.8,-,N/A,,Unknown,40,2013-07-26 08:58:00
2:59 AM,57.2,46.4,67,30.26,10.0,NE,5.8,-,N/A,,Scattered Clouds,40,2013-07-26 08:59:00
3:58 AM,56.3,46.9,71,30.23,10.0,North,4.6,-,N/A,Thunderstorm,Mostly Cloudy,350,2013-07-26 09:58:00
4:05 AM,57.2,48.2,72,30.31,10.0,NNW,19.6,23.0,N/A,Rain-Thunderstorm,Light Rain,330,2013-07-26 10:05:00
4:07 AM,55.4,48.2,77,30.29,9.0,West,8.1,23.0,N/A,Rain,Light Rain,280,2013-07-26 10:07:00
4:09 AM,55.4,48.2,77,30.25,5.0,SSW,11.5,23.0,N/A,Rain-Thunderstorm,Light Thunderstorms and Rain,200,2013-07-26 10:09:00
4:14 AM,53.6,50.0,88,30.29,2.0,NW,6.9,23.0,N/A,Rain-Thunderstorm,Heavy Thunderstorms and Rain,310,2013-07-26 10:14:00
4:19 AM,53.6,50.0,88,30.28,2.0,NNE,5.8,-,N/A,Rain-Thunderstorm,Thunderstorms and Rain,20,2013-07-26 10:19:00
4:24 AM,53.6,50.0,88,30.28,6.0,West,4.6,-,N/A,Rain-Thunderstorm,Light Thunderstorms and Rain,270,2013-07-26 10:24:00
4:31 AM,53.6,50.0,88,30.28,10.0,West,3.5,-,N/A,Thunderstorm,Thunderstorm,270,2013-07-26 10:31:00
4:32 AM,53.6,50.0,88,30.28,10.0,West,2.3,-,N/A,Thunderstorm,Overcast,270,2013-07-26 10:32:00
4:58 AM,52.9,48.0,84,30.24,10.0,West,4.6,-,0.24,,Overcast,270,2013-07-26 10:58:00
5:52 AM,53.6,51.8,94,30.30,10.0,NW,4.6,-,N/A,,Light Drizzle,310,2013-07-26 11:52:00
5:58 AM,53.6,51.3,92,30.29,10.0,West,5.8,-,0.00,,Light Drizzle,270,2013-07-26 11:58:00
6:11 AM,53.6,50.0,88,30.28,10.0,WNW,3.5,-,N/A,,Mostly Cloudy,290,2013-07-26 12:11:00
6:58 AM,54.5,50.5,86,30.29,10.0,NW,2.3,-,0.00,,Mostly Cloudy,320,2013-07-26 12:58:00
7:58 AM,57.2,46.2,67,30.30,10.0,East,4.6,-,N/A,,Partly Cloudy,80,2013-07-26 13:58:00
8:58 AM,59.4,47.3,64,30.32,10.0,NNE,3.5,-,N/A,,Overcast,20,2013-07-26 14:58:00
9:58 AM,60.3,47.1,62,30.28,10.0,Variable,1.2,-,N/A,,Scattered Clouds,0,2013-07-26 15:58:00
10:58 AM,63.3,46.0,53,30.28,10.0,Calm,Calm,-,N/A,,Partly Cloudy,0,2013-07-26 16:58:00
11:58 AM,65.3,47.8,53,30.26,10.0,ENE,5.8,-,N/A,,Clear,60,2013-07-26 17:58:00
12:58 PM,67.6,47.8,49,30.28,10.0,Variable,6.9,-,N/A,,Scattered Clouds,0,2013-07-26 18:58:00
1:58 PM,68.7,48.0,48,30.26,10.0,SE,4.6,-,N/A,,Clear,140,2013-07-26 19:58:00
2:58 PM,70.2,47.3,44,30.21,10.0,East,8.1,-,N/A,,Clear,100,2013-07-26 20:58:00
3:58 PM,72.3,47.5,41,30.20,10.0,East,5.8,-,N/A,,Mostly Cloudy,90,2013-07-26 21:58:00
4:58 PM,72.1,47.7,42,30.19,10.0,East,11.5,-,N/A,,Clear,100,2013-07-26 22:58:00
5:27 PM,73.4,46.4,38,30.21,10.0,ESE,4.6,-,N/A,Rain,Light Rain,120,2013-07-26 23:27:00
5:35 PM,71.6,46.4,41,30.21,10.0,East,6.9,-,N/A,,Clear,80,2013-07-26 23:35:00
5:53 PM,71.6,44.6,38,30.21,10.0,ENE,6.9,-,N/A,,Light Drizzle,70,2013-07-26 23:53:00
5:55 PM,71.6,44.6,38,30.20,10.0,East,8.1,-,N/A,,Clear,90,2013-07-26 23:55:00
5:58 PM,71.6,44.6,38,30.18,10.0,ENE,8.1,-,0.00,,Clear,70,2013-07-26 23:58:00
6:49 PM,71.6,44.6,38,30.20,10.0,East,6.9,-,N/A,Rain,Light Rain,90,2013-07-27 00:49:00
6:58 PM,71.2,44.6,38,30.17,10.0,East,8.1,-,0.00,Rain,Light Rain,90,2013-07-27 00:58:00
7:00 PM,69.8,44.6,40,30.20,10.0,East,10.4,-,N/A,,Clear,90,2013-07-27 01:00:00
7:58 PM,68.0,45.3,44,30.17,10.0,East,12.7,-,0.00,,Clear,90,2013-07-27 01:58:00
8:58 PM,63.3,47.1,56,30.19,10.0,East,8.1,-,N/A,,Scattered Clouds,90,2013-07-27 02:58:00
9:58 PM,60.6,46.9,61,30.22,10.0,East,6.9,-,N/A,,Clear,90,2013-07-27 03:58:00
10:58 PM,57.6,46.8,67,30.22,10.0,SE,3.5,-,N/A,,Clear,140,2013-07-27 04:58:00
11:58 PM,58.1,45.9,64,30.22,10.0,Variable,1.2,-,N/A,,Clear,0,2013-07-27 05:58:00